When you browse on this site, cookies collect data to enhance your experience and personalize the content and advertising you see.
Visit our Privacy Policy to learn more. By continuing to use the site, you agree to this use of cookies and data.
  • In Deutschland
  • Länderverzeichnis
  • Für 7 Tage
  • Wassertemperatur
  • Wetterkarte
  • Widgets
  • user-avatar
    Anmelden

    Stündliche Wetter Ropotamo

    Heute, 22 November, Freitag

    Zeit Temperatur Niederschläge Wind Luftdruck Luftfeuchtigkeit
    00:00 +12°C° 0.1 mm 9 m/S 761 mmHg 84%
    01:00 +12°C° 0.1 mm 9 m/S 761 mmHg 84%
    02:00 +11°C° 0 mm 9 m/S 761 mmHg 84%
    03:00 +11°C° 0.1 mm 8 m/S 761 mmHg 84%
    04:00 +11°C° 0.1 mm 8 m/S 761 mmHg 84%
    05:00 +11°C° 0.1 mm 8 m/S 761 mmHg 84%
    06:00 +11°C° 0.1 mm 8 m/S 761 mmHg 84%
    07:00 +10°C° 0.1 mm 9 m/S 761 mmHg 84%
    08:00 +11°C° 0 mm 9 m/S 761 mmHg 85%
    09:00 +10°C° 0.1 mm 9 m/S 761 mmHg 83%
    10:00 +10°C° 0.1 mm 9 m/S 761 mmHg 82%
    11:00 +10°C° 0.1 mm 9 m/S 762 mmHg 81%
    12:00 +10°C° 0.1 mm 8 m/S 761 mmHg 80%
    13:00 +10°C° 0.1 mm 8 m/S 761 mmHg 79%
    14:00 +10°C° 0 mm 8 m/S 761 mmHg 79%
    15:00 +10°C° 0.1 mm 8 m/S 761 mmHg 80%
    16:00 +10°C° 0.1 mm 8 m/S 761 mmHg 81%
    17:00 +10°C° 0.1 mm 8 m/S 761 mmHg 82%
    18:00 +10°C° 0.1 mm 7 m/S 761 mmHg 82%
    19:00 +10°C° 0.1 mm 7 m/S 762 mmHg 81%
    20:00 +10°C° 0.1 mm 6 m/S 762 mmHg 81%
    21:00 +10°C° 0.3 mm 6 m/S 762 mmHg 82%
    22:00 +10°C° 0.3 mm 5 m/S 762 mmHg 83%
    23:00 +10°C° 0.3 mm 5 m/S 762 mmHg 85%

    Morgen, 23 November, Samstag

    Zeit Temperatur Niederschläge Wind Luftdruck Luftfeuchtigkeit
    00:00 +10°C° 0.6 mm 5 m/S 762 mmHg 86%
    01:00 +9°C° 0.6 mm 5 m/S 762 mmHg 87%
    02:00 +10°C° 0.6 mm 4 m/S 762 mmHg 88%
    03:00 +9°C° 0.6 mm 5 m/S 762 mmHg 89%
    04:00 +9°C° 0.6 mm 5 m/S 762 mmHg 90%
    05:00 +9°C° 0.6 mm 6 m/S 762 mmHg 90%
    06:00 +9°C° 0.4 mm 6 m/S 762 mmHg 90%
    07:00 +9°C° 0.4 mm 5 m/S 762 mmHg 89%
    08:00 +9°C° 0.4 mm 5 m/S 762 mmHg 89%
    09:00 +10°C° 0.1 mm 5 m/S 762 mmHg 87%
    10:00 +10°C° 0.1 mm 5 m/S 762 mmHg 85%
    11:00 +12°C° 0.1 mm 5 m/S 762 mmHg 84%
    12:00 +12°C° 0.1 mm 5 m/S 762 mmHg 84%
    13:00 +12°C° 0.1 mm 4 m/S 762 mmHg 84%
    14:00 +12°C° 0.1 mm 4 m/S 761 mmHg 85%
    15:00 +12°C° 0.2 mm 4 m/S 761 mmHg 85%
    16:00 +12°C° 0.2 mm 4 m/S 761 mmHg 86%
    17:00 +12°C° 0.2 mm 4 m/S 761 mmHg 87%
    18:00 +12°C° 0.2 mm 5 m/S 761 mmHg 88%
    19:00 +12°C° 0.2 mm 5 m/S 761 mmHg 89%
    20:00 +12°C° 0.2 mm 5 m/S 761 mmHg 91%
    21:00 +12°C° 0.2 mm 5 m/S 761 mmHg 91%
    22:00 +12°C° 0.2 mm 4 m/S 761 mmHg 91%
    23:00 +12°C° 0.2 mm 4 m/S 761 mmHg 92%

    übermorgen, 24 November, Sonntag

    Zeit Temperatur Niederschläge Wind Luftdruck Luftfeuchtigkeit
    00:00 +11°C° 0.4 mm 4 m/S 761 mmHg 92%
    01:00 +11°C° 0.4 mm 4 m/S 761 mmHg 92%
    02:00 +11°C° 0.4 mm 4 m/S 761 mmHg 93%
    03:00 +11°C° 0.3 mm 3 m/S 761 mmHg 93%
    04:00 +11°C° 0.3 mm 3 m/S 761 mmHg 94%
    05:00 +11°C° 0.3 mm 3 m/S 760 mmHg 94%
    06:00 +12°C° 0.3 mm 2 m/S 761 mmHg 94%
    07:00 +12°C° 0.3 mm 2 m/S 761 mmHg 93%
    08:00 +12°C° 0.3 mm 2 m/S 761 mmHg 93%
    09:00 +13°C° 0.1 mm 2 m/S 761 mmHg 87%
    10:00 +14°C° 0.1 mm 1 m/S 761 mmHg 81%
    11:00 +15°C° 0.1 mm 1 m/S 761 mmHg 76%
    12:00 +16°C° 0.1 mm 1 m/S 760 mmHg 74%
    13:00 +16°C° 0.1 mm 1 m/S 760 mmHg 72%
    14:00 +16°C° 0.1 mm 2 m/S 760 mmHg 70%
    15:00 +15°C° 0.1 mm 2 m/S 760 mmHg 76%
    16:00 +14°C° 0.1 mm 2 m/S 760 mmHg 82%
    17:00 +12°C° 0.1 mm 3 m/S 759 mmHg 88%
    18:00 +12°C° 0.1 mm 3 m/S 759 mmHg 90%
    19:00 +12°C° 0.1 mm 3 m/S 759 mmHg 91%
    20:00 +12°C° 0.1 mm 3 m/S 759 mmHg 93%
    21:00 +12°C° 0.1 mm 3 m/S 759 mmHg 93%
    22:00 +12°C° 0.1 mm 3 m/S 759 mmHg 93%
    23:00 +12°C° 0.1 mm 4 m/S 759 mmHg 93%

    25 November, Montag

    Zeit Temperatur Niederschläge Wind Luftdruck Luftfeuchtigkeit
    00:00 +12°C° 0.1 mm 4 m/S 758 mmHg 93%
    01:00 +12°C° 0.1 mm 4 m/S 758 mmHg 93%
    02:00 +12°C° 0.1 mm 4 m/S 758 mmHg 93%
    03:00 +12°C° 0.1 mm 4 m/S 758 mmHg 93%
    04:00 +12°C° 0.1 mm 4 m/S 757 mmHg 93%
    05:00 +12°C° 0.1 mm 5 m/S 757 mmHg 92%
    06:00 +13°C° 0.1 mm 5 m/S 757 mmHg 92%
    07:00 +13°C° 0.1 mm 5 m/S 757 mmHg 91%
    08:00 +13°C° 0.1 mm 6 m/S 757 mmHg 90%
    09:00 +13°C° 0.1 mm 6 m/S 757 mmHg 89%
    10:00 +14°C° 0.1 mm 6 m/S 756 mmHg 87%
    11:00 +14°C° 0.1 mm 6 m/S 756 mmHg 85%
    12:00 +14°C° 0.1 mm 6 m/S 756 mmHg 84%
    13:00 +14°C° 0.1 mm 6 m/S 755 mmHg 83%
    14:00 +14°C° 0.1 mm 6 m/S 755 mmHg 82%
    15:00 +14°C° 0.1 mm 6 m/S 754 mmHg 84%
    16:00 +14°C° 0.1 mm 7 m/S 754 mmHg 85%
    17:00 +14°C° 0.1 mm 7 m/S 754 mmHg 87%
    18:00 +14°C° 0.2 mm 7 m/S 754 mmHg 88%
    19:00 +14°C° 0.2 mm 7 m/S 754 mmHg 88%
    20:00 +14°C° 0.2 mm 7 m/S 753 mmHg 88%
    21:00 +13°C° 0.5 mm 8 m/S 753 mmHg 89%
    22:00 +13°C° 0.5 mm 8 m/S 753 mmHg 89%
    23:00 +13°C° 0.5 mm 8 m/S 752 mmHg 90%

    26 November, Dienstag

    Zeit Temperatur Niederschläge Wind Luftdruck Luftfeuchtigkeit
    00:00 +14°C° 1.8 mm 7 m/S 752 mmHg 91%
    01:00 +12°C° 1.8 mm 7 m/S 751 mmHg 93%
    02:00 +13°C° 1.8 mm 6 m/S 751 mmHg 94%
    03:00 +13°C° 2 mm 5 m/S 751 mmHg 94%
    04:00 +13°C° 2 mm 4 m/S 751 mmHg 95%
    05:00 +13°C° 2 mm 4 m/S 750 mmHg 95%
    06:00 +13°C° 2.2 mm 4 m/S 750 mmHg 95%
    07:00 +13°C° 2.2 mm 4 m/S 750 mmHg 95%
    08:00 +13°C° 2.2 mm 4 m/S 751 mmHg 96%
    09:00 +13°C° 1.3 mm 3 m/S 751 mmHg 93%
    10:00 +13°C° 1.3 mm 3 m/S 751 mmHg 91%
    11:00 +13°C° 1.3 mm 3 m/S 751 mmHg 89%
    12:00 +13°C° 0.8 mm 3 m/S 751 mmHg 90%
    13:00 +13°C° 0.8 mm 4 m/S 751 mmHg 90%
    14:00 +13°C° 0.8 mm 5 m/S 751 mmHg 90%
    15:00 +11°C° 0.7 mm 6 m/S 751 mmHg 90%
    16:00 +11°C° 0.7 mm 7 m/S 751 mmHg 90%
    17:00 +10°C° 0.7 mm 8 m/S 751 mmHg 90%
    18:00 +10°C° 1.2 mm 9 m/S 752 mmHg 90%
    19:00 +8°C° 1.2 mm 9 m/S 752 mmHg 91%
    20:00 +8°C° 1.2 mm 9 m/S 753 mmHg 91%
    21:00 +9°C° 0.4 mm 8 m/S 753 mmHg 89%
    22:00 +8°C° 0.4 mm 7 m/S 753 mmHg 88%
    23:00 +8°C° 0.4 mm 7 m/S 754 mmHg 87%

    27 November, Mittwoch

    Zeit Temperatur Niederschläge Wind Luftdruck Luftfeuchtigkeit
    00:00 +8°C° 0.1 mm 6 m/S 754 mmHg 87%
    01:00 +8°C° 0.1 mm 6 m/S 754 mmHg 86%
    02:00 +7°C° 0.1 mm 6 m/S 754 mmHg 86%
    03:00 +7°C° 0 mm 5 m/S 755 mmHg 87%
    04:00 +7°C° 0 mm 5 m/S 755 mmHg 88%
    05:00 +6°C° 0 mm 4 m/S 755 mmHg 89%
    06:00 +6°C° 0 mm 4 m/S 755 mmHg 88%
    07:00 +7°C° 0 mm 3 m/S 756 mmHg 88%
    08:00 +7°C° 0 mm 3 m/S 756 mmHg 87%
    09:00 +8°C° 0 mm 2 m/S 756 mmHg 82%
    10:00 +9°C° 0 mm 2 m/S 756 mmHg 77%
    11:00 +10°C° 0 mm 2 m/S 756 mmHg 72%
    12:00 +12°C° 0 mm 1 m/S 756 mmHg 70%
    13:00 +12°C° 0 mm 1 m/S 756 mmHg 69%
    14:00 +12°C° 0 mm 1 m/S 755 mmHg 68%
    15:00 +12°C° 0 mm 1 m/S 756 mmHg 72%
    16:00 +11°C° 0 mm 1 m/S 756 mmHg 77%
    17:00 +10°C° 0 mm 1 m/S 756 mmHg 82%
    18:00 +10°C° 0 mm 1 m/S 756 mmHg 83%
    19:00 +9°C° 0 mm 2 m/S 756 mmHg 84%
    20:00 +8°C° 0 mm 2 m/S 756 mmHg 86%
    21:00 +8°C° 0 mm 2 m/S 756 mmHg 86%
    22:00 +8°C° 0 mm 2 m/S 756 mmHg 87%
    23:00 +8°C° 0 mm 2 m/S 756 mmHg 87%
    Mehr zeigen